x

Buoy E01 - Central Maine Shelf (44032) Wave Buoy

3:04am - Tue 21st Feb 2017 All times are EST. -5 hours from GMT.

  • Sig Wave height 3.0ft
  • Peak Period 5s
  • Wind
    18mph, 20mph gusts
  • Sea Temp 38°f
  • Air Temp 32°f
  • Sea Pressure 1027.9mb
  • Buoy E01 - Central Maine Shelf
  • Buoy E01 - Central Maine Shelf

More Historic Weather Station data

Upgrade to MSW Pro to gain access to the past 30 days of data for over 8000 Wavebouys and Weather Stations around the globe.

Join Pro

Comparision Forecast

View Surf forecast
   
Tue 02/21 3:04am 3ft 5s 18 20 mph 1027.9mb 38f 32f
2:04am 2.5ft 5s 18 22 mph 1028.1mb 38f 33f
1:04am 2.5ft 3s 16 20 mph 1027.7mb 38f 34f
12:04am 2.5ft 3s 18 20 mph 1027.4mb 38f 35f
Mon 02/20 11:04pm 2ft 3s 18 22 mph 1026.1mb 38f 35f
10:04pm 2.5ft 3s 18 22 mph 1025.5mb 38f 36f
9:04pm 2ft 3s 18 20 mph 1025.7mb 38f 37f
8:04pm 2ft 3s 18 20 mph 1025.1mb 38f 38f
7:04pm 1.6ft 3s 11 13 mph 1024.2mb 38f 38f
6:04pm 2.5ft 3s 16 18 mph 1023.5mb 38f 39f
5:04pm 2.5ft 3s 16 20 mph 1022.7mb 38f 40f
4:04pm 1.6ft 3s 16 18 mph 1021.9mb 38f 39f
3:04pm 2.5ft 8s 13 18 mph 1020.9mb 38f 39f
2:04pm 2.5ft 8s 13 16 mph 1020mb 38f 38f
1:04pm 3ft 8s 13 16 mph 1019.8mb 38f 37f
12:04pm 2.5ft 4s 18 22 mph 1020mb 38f 36f
11:04am 2.5ft 4s 18 25 mph 1020.1mb 38f 36f
10:04am 2.5ft 3s 20 22 mph 1019.8mb 38f 36f
9:04am 3.5ft 8s 20 25 mph 1019.3mb 38f 35f
8:04am 3ft 8s 20 27 mph 1018.4mb 38f 36f
7:04am 2.5ft 3s 20 25 mph 1017.6mb 38f 36f
6:04am 3ft 8s 20 22 mph 1016.2mb 38f 37f
5:04am 3ft 8s 13 18 mph 1015.4mb 38f 37f
4:04am 3.5ft 8s 18 22 mph 1014.1mb 38f 38f
3:04am 1.6ft 3s 20 25 mph 1013.3mb 38f 38f
2:04am 2.5ft 8s 13 18 mph 1012.8mb 38f 39f
1:04am 2.5ft 8s 16 20 mph 1012mb 38f 39f
12:04am 2.5ft 8s 13 16 mph 1011.4mb 38f 39f
Sun 02/19 11:04pm 2ft 6s 16 20 mph 1010.8mb 38f 40f
10:04pm 2ft 5s 13 16 mph 1009.9mb 38f 42f
9:04pm 2.5ft 3s  -  mph - 38f -
8:04pm 2.5ft 5s 9 13 mph 1008.8mb 38f 42f
7:04pm 3ft 6s 13 16 mph 1008.1mb 38f 42f
6:04pm 3.5ft 5s 16 18 mph 1006.8mb 39f 44f
5:04pm 3.5ft 6s 20 25 mph 1005.4mb 39f 46f
4:04pm 3.5ft 5s 11 13 mph 1004.3mb 39f 42f
3:04pm 4ft 6s 16
mph
1003.3mb 39f 43f
2:04pm 3.5ft 5s 11
mph
1002.4mb 39f 42f
1:04pm 3.5ft 6s 9 11 mph 1002.2mb 39f 41f
12:04pm 3.5ft 6s 4 7 mph 1002.5mb 38f 41f
11:04am 3.5ft 6s 13 18 mph 1003.2mb 38f 42f
10:04am 3.5ft 6s 11 13 mph 1003.3mb 38f 40f
9:04am 3.5ft 6s 11 13 mph 1003.2mb 38f 41f
8:04am 4ft 6s 16 18 mph 1002.6mb 38f 41f
7:04am 4.5ft 6s 13 16 mph 1001.9mb 38f 41f
6:04am 4.5ft 6s 16 18 mph 1000.8mb 38f 41f
5:04am 5ft 6s 11 18 mph 999.5mb 38f 41f
4:04am 5ft 8s 16 18 mph 998.8mb 39f 41f
3:04am 5.5ft 6s 11 13 mph 998.6mb 39f 41f
2:04am 6ft 6s 11
mph
998.2mb 40f 41f
1:04am 7ft 6s 11 13 mph 997.9mb 39f 42f
12:04am 6ft 6s 18 20 mph 997.4mb 39f 43f
Sat 02/18 11:04pm 7.5ft 6s 22 29 mph 996.8mb 39f 44f
10:04pm 7ft 6s 25 29 mph 996.8mb 39f 44f
9:04pm 6ft 6s 22 27 mph 996.6mb 39f 44f
8:04pm 5ft 6s 25 29 mph 996.9mb 39f 44f
7:04pm 5ft 6s 22 27 mph 997.3mb 39f 44f
6:04pm 5ft 5s 20 25 mph 998.4mb 39f 43f
5:04pm 5ft 5s 18 22 mph 999mb 40f 42f
4:04pm 5ft 5s 18 22 mph 999.9mb 40f 42f
3:04pm 4.5ft 5s 22 25 mph 1001.1mb 39f 41f
2:04pm 3.5ft 5s 20 27 mph 1002.2mb 39f 40f
1:04pm 2.5ft 5s 13 18 mph 1003.4mb 38f 38f
12:04pm 2.5ft 4s 11 13 mph 1005.2mb 38f 37f
11:04am 2ft 3s 16 20 mph 1005.8mb 38f 37f
10:04am 1.6ft 5s 13 18 mph 1006.9mb 38f 37f
9:04am 2ft 11s 2 4 mph 1007.3mb 38f 35f
8:04am 2ft 11s 4 7 mph 1007.6mb 38f 33f
7:04am 1.3ft 4s 7 9 mph 1008.4mb 38f 33f
6:04am 1.3ft 3s 7 9 mph 1007.9mb 38f 33f
5:04am 2ft 4s 11 13 mph 1007.8mb 39f 32f
4:04am 2.5ft 4s 16 20 mph 1007.9mb 38f 32f
3:04am 2.5ft 3s 16 18 mph 1008mb 38f 32f
2:04am 2.5ft 3s 16 20 mph 1007.7mb 38f 32f
1:04am 2.5ft 4s 13 18 mph 1007.1mb 39f 31f
12:04am 3ft 4s 18 22 mph 1006.8mb 39f 31f
Fri 02/17 11:04pm 3.5ft 4s 22 27 mph 1005.5mb 39f 32f
10:04pm 3.5ft 4s 20 25 mph 1005.5mb 39f 31f
9:04pm 3.5ft 4s 22 27 mph 1005.3mb 40f 32f
8:04pm 3.5ft 3s 22 27 mph 1004.7mb 40f 33f
7:04pm 4ft 4s 25 29 mph 1003.2mb 40f 34f
6:04pm 3.5ft 4s 20 25 mph 1002.6mb 40f 35f
5:04pm 4ft 4s 22 27 mph 1001.6mb 40f 36f
4:04pm 3.5ft 5s 22 27 mph 1000.5mb 40f 37f
3:04pm 3.5ft 5s 20 25 mph 1000.2mb 40f 36f
2:04pm 4.5ft 5s 25 29 mph 1000.1mb 40f 33f
1:04pm 4ft 5s 27 31 mph 1000mb 40f 34f
12:04pm 3.5ft 4s 20 25 mph 1000.4mb 40f 32f
11:04am 4ft 5s 25 29 mph 1000.8mb 40f 31f
10:04am 3.5ft 5s 22 29 mph 1001mb 40f 29f